Year,Month,Day,Hour,Minute,Value (Times are PST for temperature in C)
2017,06,25,00,00,15.70
2017,06,25,00,01,15.70
2017,06,25,00,02,15.70
2017,06,25,00,03,15.60
2017,06,25,00,04,15.60
2017,06,25,00,05,15.60
2017,06,25,00,06,15.60
2017,06,25,00,07,15.60
2017,06,25,00,08,15.60
2017,06,25,00,09,15.50
2017,06,25,00,10,15.50
2017,06,25,00,11,15.50
2017,06,25,00,12,15.40
2017,06,25,00,13,15.40
2017,06,25,00,14,15.40
2017,06,25,00,15,15.40
2017,06,25,00,16,15.30
2017,06,25,00,17,15.30
2017,06,25,00,18,15.30
2017,06,25,00,19,15.30
2017,06,25,00,20,15.30
2017,06,25,00,21,15.20
2017,06,25,00,22,15.20
2017,06,25,00,23,15.20
2017,06,25,00,24,15.20
2017,06,25,00,25,15.20
2017,06,25,00,26,15.20
2017,06,25,00,27,15.20
2017,06,25,00,28,15.20
2017,06,25,00,29,15.10
2017,06,25,00,30,15.10
2017,06,25,00,31,15.10
2017,06,25,00,32,15.10
2017,06,25,00,33,15.10
2017,06,25,00,34,15.00
2017,06,25,00,35,15.00
2017,06,25,00,36,15.00
2017,06,25,00,37,15.00
2017,06,25,00,38,14.90
2017,06,25,00,39,14.90
2017,06,25,00,40,14.90
2017,06,25,00,41,14.90
2017,06,25,00,42,14.90
2017,06,25,00,43,14.90
2017,06,25,00,44,14.90
2017,06,25,00,45,14.90
2017,06,25,00,46,14.90
2017,06,25,00,47,14.90
2017,06,25,00,48,14.90
2017,06,25,00,49,14.90
2017,06,25,00,50,14.90
2017,06,25,00,51,14.90
2017,06,25,00,52,14.90
2017,06,25,00,53,14.90
2017,06,25,00,54,14.90
2017,06,25,00,55,15.00
2017,06,25,00,56,15.00
2017,06,25,00,57,15.00
2017,06,25,00,58,15.10
2017,06,25,00,59,15.10
2017,06,25,01,00,15.10
2017,06,25,01,01,15.10
2017,06,25,01,02,15.10
2017,06,25,01,03,15.10
2017,06,25,01,04,15.00
2017,06,25,01,05,15.00
2017,06,25,01,06,15.00
2017,06,25,01,07,15.00
2017,06,25,01,08,14.90
2017,06,25,01,09,14.90
2017,06,25,01,10,14.90
2017,06,25,01,11,14.80
2017,06,25,01,12,14.80
2017,06,25,01,13,14.80
2017,06,25,01,14,14.70
2017,06,25,01,15,14.70
2017,06,25,01,16,14.70
2017,06,25,01,17,14.70
2017,06,25,01,18,14.70
2017,06,25,01,19,14.70
2017,06,25,01,20,14.70
2017,06,25,01,21,14.70
2017,06,25,01,22,14.70
2017,06,25,01,23,14.70
2017,06,25,01,24,14.70
2017,06,25,01,25,14.70
2017,06,25,01,26,14.70
2017,06,25,01,27,14.70
2017,06,25,01,28,14.70
2017,06,25,01,29,14.70
2017,06,25,01,30,14.60
2017,06,25,01,31,14.60
2017,06,25,01,32,14.60
2017,06,25,01,33,14.60
2017,06,25,01,34,14.60
2017,06,25,01,35,14.60
2017,06,25,01,36,14.60
2017,06,25,01,37,14.50
2017,06,25,01,38,14.50
2017,06,25,01,39,14.50
2017,06,25,01,40,14.50
2017,06,25,01,41,14.50
2017,06,25,01,42,14.40
2017,06,25,01,43,14.40
2017,06,25,01,44,14.40
2017,06,25,01,45,14.40
2017,06,25,01,46,14.30
2017,06,25,01,47,14.30
2017,06,25,01,48,14.30
2017,06,25,01,49,14.30
2017,06,25,01,50,14.30
2017,06,25,01,51,14.30
2017,06,25,01,52,14.30
2017,06,25,01,53,14.30
2017,06,25,01,54,14.30
2017,06,25,01,55,14.30
2017,06,25,01,56,14.30
2017,06,25,01,57,14.30
2017,06,25,01,58,14.30
2017,06,25,01,59,14.20
2017,06,25,02,00,14.20
2017,06,25,02,01,14.20
2017,06,25,02,02,14.20
2017,06,25,02,03,14.20
2017,06,25,02,04,14.10
2017,06,25,02,05,14.10
2017,06,25,02,06,14.10
2017,06,25,02,07,14.10
2017,06,25,02,08,14.10
2017,06,25,02,09,14.10
2017,06,25,02,10,14.00
2017,06,25,02,11,14.00
2017,06,25,02,12,14.00
2017,06,25,02,13,13.90
2017,06,25,02,14,13.90
2017,06,25,02,15,13.90
2017,06,25,02,16,13.90
2017,06,25,02,17,13.90
2017,06,25,02,18,13.90
2017,06,25,02,19,13.80
2017,06,25,02,20,13.80
2017,06,25,02,21,13.80
2017,06,25,02,22,13.80
2017,06,25,02,23,13.80
2017,06,25,02,24,13.80
2017,06,25,02,25,13.80
2017,06,25,02,26,13.80
2017,06,25,02,27,13.80
2017,06,25,02,28,13.80
2017,06,25,02,29,13.80
2017,06,25,02,30,13.80
2017,06,25,02,31,13.80
2017,06,25,02,32,13.80
2017,06,25,02,33,13.80
2017,06,25,02,34,13.70
2017,06,25,02,35,13.70
2017,06,25,02,36,13.70
2017,06,25,02,37,13.70
2017,06,25,02,38,13.70
2017,06,25,02,39,13.70
2017,06,25,02,40,13.70
2017,06,25,02,41,13.60
2017,06,25,02,42,13.60
2017,06,25,02,43,13.60
2017,06,25,02,44,13.60
2017,06,25,02,45,13.60
2017,06,25,02,46,13.60
2017,06,25,02,47,13.60
2017,06,25,02,48,13.60
2017,06,25,02,49,13.60
2017,06,25,02,50,13.60
2017,06,25,02,51,13.60
2017,06,25,02,52,13.60
2017,06,25,02,53,13.60
2017,06,25,02,54,13.70
2017,06,25,02,55,13.70
2017,06,25,02,56,13.70
2017,06,25,02,57,13.70
2017,06,25,02,58,13.70
2017,06,25,02,59,13.70
2017,06,25,03,00,13.70
2017,06,25,03,01,13.60
2017,06,25,03,02,13.60
2017,06,25,03,06,13.60
2017,06,25,03,07,13.60
2017,06,25,03,08,13.60
2017,06,25,03,09,13.60
2017,06,25,03,10,13.50
2017,06,25,03,11,13.50
2017,06,25,03,12,13.50
2017,06,25,03,13,13.50
2017,06,25,03,14,13.50
2017,06,25,03,15,13.50
2017,06,25,03,16,13.50
2017,06,25,03,17,13.50
2017,06,25,03,18,13.50
2017,06,25,03,19,13.50
2017,06,25,03,20,13.40
2017,06,25,03,21,13.40
2017,06,25,03,22,13.40
2017,06,25,03,23,13.40
2017,06,25,03,24,13.40
2017,06,25,03,25,13.40
2017,06,25,03,26,13.40
2017,06,25,03,27,13.40
2017,06,25,03,28,13.40
2017,06,25,03,29,13.40
2017,06,25,03,30,13.30
2017,06,25,03,31,13.30
2017,06,25,03,32,13.30
2017,06,25,03,33,13.30
2017,06,25,03,34,13.30
2017,06,25,03,35,13.30
2017,06,25,03,36,13.30
2017,06,25,03,37,13.30
2017,06,25,03,38,13.20
2017,06,25,03,39,13.20
2017,06,25,03,40,13.20
2017,06,25,03,41,13.20
2017,06,25,03,42,13.20
2017,06,25,03,43,13.20
2017,06,25,03,44,13.10
2017,06,25,03,45,13.10
2017,06,25,03,46,13.10
2017,06,25,03,47,13.10
2017,06,25,03,48,13.10
2017,06,25,03,49,13.10
2017,06,25,03,50,13.10
2017,06,25,03,51,13.10
2017,06,25,03,52,13.10
2017,06,25,03,53,13.10
2017,06,25,03,54,13.00
2017,06,25,03,55,13.10
2017,06,25,03,56,13.10
2017,06,25,03,57,13.10
2017,06,25,03,58,13.10
2017,06,25,03,59,13.00
2017,06,25,04,00,13.00
2017,06,25,04,01,13.00
2017,06,25,04,02,13.00
2017,06,25,04,03,13.00
2017,06,25,04,04,12.90
2017,06,25,04,05,12.90
2017,06,25,04,06,12.90
2017,06,25,04,07,12.90
2017,06,25,04,08,12.90
2017,06,25,04,09,12.90
2017,06,25,04,10,12.90
2017,06,25,04,11,12.90
2017,06,25,04,12,12.90
2017,06,25,04,13,13.00
2017,06,25,04,14,13.00
2017,06,25,04,15,13.00
2017,06,25,04,16,13.00
2017,06,25,04,17,13.00
2017,06,25,04,18,13.00
2017,06,25,04,19,13.00
2017,06,25,04,20,13.00
2017,06,25,04,21,12.90
2017,06,25,04,22,12.90
2017,06,25,04,23,12.90
2017,06,25,04,24,12.90
2017,06,25,04,25,12.90
2017,06,25,04,26,12.90
2017,06,25,04,27,12.90
2017,06,25,04,28,12.90
2017,06,25,04,29,12.90
2017,06,25,04,30,12.80
2017,06,25,04,31,12.80
2017,06,25,04,32,12.80
2017,06,25,04,33,12.80
2017,06,25,04,34,12.80
2017,06,25,04,35,12.80
2017,06,25,04,36,12.80
2017,06,25,04,37,12.70
2017,06,25,04,38,12.70
2017,06,25,04,39,12.70
2017,06,25,04,40,12.70
2017,06,25,04,41,12.70
2017,06,25,04,42,12.70
2017,06,25,04,43,12.70
2017,06,25,04,44,12.70
2017,06,25,04,45,12.70
2017,06,25,04,46,12.70
2017,06,25,04,47,12.60
2017,06,25,04,48,12.60
2017,06,25,04,49,12.60
2017,06,25,04,50,12.60
2017,06,25,04,51,12.60
2017,06,25,04,52,12.60
2017,06,25,04,53,12.60
2017,06,25,04,54,12.60
2017,06,25,04,55,12.60
2017,06,25,04,56,12.60
2017,06,25,04,57,12.60
2017,06,25,04,58,12.60
2017,06,25,04,59,12.60
2017,06,25,05,00,12.60
2017,06,25,05,01,12.60
2017,06,25,05,02,12.60
2017,06,25,05,03,12.50
2017,06,25,05,04,12.50
2017,06,25,05,05,12.50
2017,06,25,05,06,12.40
2017,06,25,05,07,12.40
2017,06,25,05,08,12.40
2017,06,25,05,09,12.40
2017,06,25,05,10,12.40
2017,06,25,05,11,12.40
2017,06,25,05,12,12.40
2017,06,25,05,13,12.40
2017,06,25,05,14,12.40
2017,06,25,05,15,12.40
2017,06,25,05,16,12.40
2017,06,25,05,17,12.40
2017,06,25,05,18,12.40
2017,06,25,05,19,12.40
2017,06,25,05,20,12.50
2017,06,25,05,21,12.50
2017,06,25,05,22,12.50
2017,06,25,05,23,12.60
2017,06,25,05,24,12.60
2017,06,25,05,25,12.60
2017,06,25,05,26,12.60
2017,06,25,05,27,12.60
2017,06,25,05,28,12.70
2017,06,25,05,29,12.70
2017,06,25,05,30,12.70
2017,06,25,05,31,12.70
2017,06,25,05,32,12.70
2017,06,25,05,33,12.70
2017,06,25,05,34,12.70
2017,06,25,05,35,12.70
2017,06,25,05,36,12.70
2017,06,25,05,37,12.70
2017,06,25,05,38,12.80
2017,06,25,05,39,12.80
2017,06,25,05,40,12.80
2017,06,25,05,41,12.90
2017,06,25,05,42,12.90
2017,06,25,05,43,13.00
2017,06,25,05,44,13.00
2017,06,25,05,45,13.10
2017,06,25,05,46,13.10
2017,06,25,05,47,13.10
2017,06,25,05,48,13.20
2017,06,25,05,49,13.20
2017,06,25,05,50,13.30
2017,06,25,05,51,13.30
2017,06,25,05,52,13.30
2017,06,25,05,53,13.30
2017,06,25,05,54,13.30
2017,06,25,05,55,13.40
2017,06,25,05,56,13.40
2017,06,25,05,57,13.40
2017,06,25,05,58,13.40
2017,06,25,05,59,13.40
2017,06,25,06,00,13.50
2017,06,25,06,01,13.50
2017,06,25,06,02,13.60
2017,06,25,06,03,13.60
2017,06,25,06,04,13.60
2017,06,25,06,05,13.60
2017,06,25,06,06,13.60
2017,06,25,06,07,13.70
2017,06,25,06,08,13.70
2017,06,25,06,09,13.70
2017,06,25,06,10,13.70
2017,06,25,06,11,13.70
2017,06,25,06,12,13.70
2017,06,25,06,13,13.70
2017,06,25,06,14,13.70
2017,06,25,06,15,13.70
2017,06,25,06,16,13.70
2017,06,25,06,17,13.80
2017,06,25,06,18,13.80
2017,06,25,06,19,13.80
2017,06,25,06,20,13.80
2017,06,25,06,21,13.80
2017,06,25,06,22,13.80
2017,06,25,06,23,13.80
2017,06,25,06,24,13.90
2017,06,25,06,25,13.90
2017,06,25,06,26,13.90
2017,06,25,06,27,13.90
2017,06,25,06,28,13.90
2017,06,25,06,29,13.90
2017,06,25,06,30,14.00
2017,06,25,06,31,14.00
2017,06,25,06,32,14.10
2017,06,25,06,33,14.10
2017,06,25,06,34,14.10
2017,06,25,06,35,14.10
2017,06,25,06,36,14.20
2017,06,25,06,37,14.20
2017,06,25,06,38,14.30
2017,06,25,06,39,14.40
2017,06,25,06,40,14.50
2017,06,25,06,41,14.70
2017,06,25,06,42,14.80
2017,06,25,06,43,14.90
2017,06,25,06,44,14.90
2017,06,25,06,45,15.00
2017,06,25,06,46,15.10
2017,06,25,06,47,15.20
2017,06,25,06,48,15.20
2017,06,25,06,49,15.30
2017,06,25,06,50,15.40
2017,06,25,06,51,15.50
2017,06,25,06,52,15.50
2017,06,25,06,53,15.60
2017,06,25,06,54,15.60
2017,06,25,06,55,15.70
2017,06,25,06,56,15.70
2017,06,25,06,57,15.80
2017,06,25,06,58,15.80
2017,06,25,06,59,15.80
2017,06,25,07,00,15.90
2017,06,25,07,01,15.90
2017,06,25,07,02,15.90
2017,06,25,07,03,16.00
2017,06,25,07,04,16.00
2017,06,25,07,05,16.10
2017,06,25,07,06,16.10
2017,06,25,07,07,16.10
2017,06,25,07,08,16.10
2017,06,25,07,09,16.20
2017,06,25,07,10,16.20
2017,06,25,07,11,16.20
2017,06,25,07,12,16.30
2017,06,25,07,13,16.30
2017,06,25,07,14,16.40
2017,06,25,07,15,16.50
2017,06,25,07,16,16.50
2017,06,25,07,17,16.60
2017,06,25,07,18,16.70
2017,06,25,07,19,16.70
2017,06,25,07,20,16.80
2017,06,25,07,21,16.80
2017,06,25,07,22,16.90
2017,06,25,07,23,17.00
2017,06,25,07,24,17.10
2017,06,25,07,25,17.10
2017,06,25,07,26,17.20
2017,06,25,07,27,17.20
2017,06,25,07,28,17.20
2017,06,25,07,29,17.30
2017,06,25,07,30,17.30
2017,06,25,07,31,17.30
2017,06,25,07,32,17.30
2017,06,25,07,33,17.40
2017,06,25,07,34,17.40
2017,06,25,07,35,17.50
2017,06,25,07,36,17.60
2017,06,25,07,37,17.60
2017,06,25,07,38,17.70
2017,06,25,07,39,17.70
2017,06,25,07,40,17.80
2017,06,25,07,41,17.90
2017,06,25,07,42,17.90
2017,06,25,07,43,18.00
2017,06,25,07,44,18.00
2017,06,25,07,45,18.10
2017,06,25,07,46,18.20
2017,06,25,07,47,18.20
2017,06,25,07,48,18.30
2017,06,25,07,49,18.40
2017,06,25,07,50,18.50
2017,06,25,07,51,18.50
2017,06,25,07,52,18.60
2017,06,25,07,53,18.70
2017,06,25,07,54,18.70
2017,06,25,07,55,18.80
2017,06,25,07,56,18.90
2017,06,25,07,57,19.00
2017,06,25,07,58,19.10
2017,06,25,07,59,19.10
2017,06,25,08,00,19.20
2017,06,25,08,01,19.30
2017,06,25,08,02,19.40
2017,06,25,08,03,19.50
2017,06,25,08,04,19.60
2017,06,25,08,05,19.70
2017,06,25,08,06,19.70
2017,06,25,08,07,19.80
2017,06,25,08,08,19.80
2017,06,25,08,09,19.90
2017,06,25,08,10,20.00
2017,06,25,08,11,20.20
2017,06,25,08,12,20.30
2017,06,25,08,13,20.50
2017,06,25,08,14,20.60
2017,06,25,08,15,20.80
2017,06,25,08,16,20.90
2017,06,25,08,17,21.00
2017,06,25,08,18,21.10
2017,06,25,08,19,21.20
2017,06,25,08,20,21.20
2017,06,25,08,21,21.30
2017,06,25,08,22,21.40
2017,06,25,08,23,21.50
2017,06,25,08,24,21.50
2017,06,25,08,25,21.60
2017,06,25,08,26,21.60
2017,06,25,08,27,21.70
2017,06,25,08,28,21.80
2017,06,25,08,29,21.80
2017,06,25,08,30,21.90
2017,06,25,08,31,22.00
2017,06,25,08,32,22.10
2017,06,25,08,33,22.20
2017,06,25,08,34,22.30
2017,06,25,08,35,22.40
2017,06,25,08,36,22.50
2017,06,25,08,37,22.60
2017,06,25,08,38,22.80
2017,06,25,08,39,22.90
2017,06,25,08,40,23.00
2017,06,25,08,41,23.10
2017,06,25,08,42,23.20
2017,06,25,08,43,23.30
2017,06,25,08,44,23.40
2017,06,25,08,45,23.50
2017,06,25,08,46,23.50
2017,06,25,08,47,23.50
2017,06,25,08,48,23.50
2017,06,25,08,49,23.50
2017,06,25,08,50,23.50
2017,06,25,08,51,23.50
2017,06,25,08,52,23.50
2017,06,25,08,53,23.60
2017,06,25,08,54,23.60
2017,06,25,08,55,23.60
2017,06,25,08,56,23.70
2017,06,25,08,57,23.70
2017,06,25,08,58,23.70
2017,06,25,08,59,23.70
2017,06,25,09,00,23.70
2017,06,25,09,01,23.70
2017,06,25,09,02,23.80
2017,06,25,09,03,23.80
2017,06,25,09,04,23.80
2017,06,25,09,05,23.90
2017,06,25,09,06,23.90
2017,06,25,09,07,23.90
2017,06,25,09,08,23.90
2017,06,25,09,09,24.00
2017,06,25,09,10,24.10
2017,06,25,09,11,24.10
2017,06,25,09,12,24.10
2017,06,25,09,13,24.10
2017,06,25,09,14,24.10
2017,06,25,09,15,24.10
2017,06,25,09,16,24.10
2017,06,25,09,17,24.00
2017,06,25,09,18,24.00
2017,06,25,09,19,23.90
2017,06,25,09,20,23.90
2017,06,25,09,21,24.00
2017,06,25,09,22,24.00
2017,06,25,09,23,24.00
2017,06,25,09,24,24.00
2017,06,25,09,25,24.00
2017,06,25,09,26,24.00
2017,06,25,09,27,24.10
2017,06,25,09,28,24.10
2017,06,25,09,29,24.20
2017,06,25,09,30,24.20
2017,06,25,09,31,24.20
2017,06,25,09,32,24.30
2017,06,25,09,33,24.30
2017,06,25,09,34,24.30
2017,06,25,09,35,24.30
2017,06,25,09,36,24.40
2017,06,25,09,37,24.40
2017,06,25,09,38,24.40
2017,06,25,09,39,24.40
2017,06,25,09,40,24.40
2017,06,25,09,41,24.40
2017,06,25,09,42,24.50
2017,06,25,09,43,24.60
2017,06,25,09,44,24.60
2017,06,25,09,45,24.70
2017,06,25,09,46,24.80
2017,06,25,09,47,24.80
2017,06,25,09,48,24.80
2017,06,25,09,49,24.80
2017,06,25,09,50,24.80
2017,06,25,09,51,24.80
2017,06,25,09,52,24.80
2017,06,25,09,53,24.80
2017,06,25,09,54,24.90
2017,06,25,09,55,24.90
2017,06,25,09,56,25.00
2017,06,25,09,57,25.00
2017,06,25,09,58,25.10
2017,06,25,09,59,25.10
2017,06,25,10,00,25.10
2017,06,25,10,01,25.20
2017,06,25,10,02,25.30
2017,06,25,10,03,25.50
2017,06,25,10,04,25.60
2017,06,25,10,05,25.60
2017,06,25,10,06,25.70
2017,06,25,10,07,25.80
2017,06,25,10,08,25.90
2017,06,25,10,09,25.90
2017,06,25,10,10,25.90
2017,06,25,10,11,25.90
2017,06,25,10,12,25.90
2017,06,25,10,13,25.90
2017,06,25,10,14,26.00
2017,06,25,10,15,26.10
2017,06,25,10,16,26.10
2017,06,25,10,17,26.20
2017,06,25,10,18,26.20
2017,06,25,10,19,26.20
2017,06,25,10,20,26.20
2017,06,25,10,21,26.20
2017,06,25,10,22,26.20
2017,06,25,10,23,26.20
2017,06,25,10,24,26.30
2017,06,25,10,25,26.20
2017,06,25,10,26,26.20
2017,06,25,10,27,26.10
2017,06,25,10,28,26.10
2017,06,25,10,29,26.20
2017,06,25,10,30,26.20
2017,06,25,10,31,26.30
2017,06,25,10,32,26.30
2017,06,25,10,33,26.30
2017,06,25,10,34,26.30
2017,06,25,10,35,26.30
2017,06,25,10,36,26.40
2017,06,25,10,37,26.30
2017,06,25,10,38,26.30
2017,06,25,10,39,26.30
2017,06,25,10,40,26.30
2017,06,25,10,41,26.30
2017,06,25,10,42,26.40
2017,06,25,10,43,26.50
2017,06,25,10,44,26.50
2017,06,25,10,45,26.70
2017,06,25,10,46,26.80
2017,06,25,10,47,26.80
2017,06,25,10,48,26.80
2017,06,25,10,49,26.90
2017,06,25,10,50,26.90
2017,06,25,10,51,27.00
2017,06,25,10,52,27.10
2017,06,25,10,53,27.30
2017,06,25,10,54,27.40
2017,06,25,10,55,27.60
2017,06,25,10,56,27.70
2017,06,25,10,57,27.70
2017,06,25,10,58,27.60
2017,06,25,10,59,27.40
2017,06,25,11,00,27.20
2017,06,25,11,01,27.20
2017,06,25,11,02,27.10
2017,06,25,11,03,26.90
2017,06,25,11,04,26.90
2017,06,25,11,05,27.00
2017,06,25,11,06,27.10
2017,06,25,11,07,27.10
2017,06,25,11,08,27.10
2017,06,25,11,09,27.20
2017,06,25,11,10,27.30
2017,06,25,11,11,27.30
2017,06,25,11,12,27.30
2017,06,25,11,13,27.30
2017,06,25,11,14,27.40
2017,06,25,11,15,27.50
2017,06,25,11,16,27.70
2017,06,25,11,17,27.90
2017,06,25,11,18,28.00
2017,06,25,11,19,28.00
2017,06,25,11,20,28.10
2017,06,25,11,21,28.10
2017,06,25,11,22,28.10
2017,06,25,11,23,28.20
2017,06,25,11,24,28.10
2017,06,25,11,25,28.00
2017,06,25,11,26,28.00
2017,06,25,11,27,27.90
2017,06,25,11,28,27.90
2017,06,25,11,29,28.00
2017,06,25,11,30,28.00
2017,06,25,11,31,28.00
2017,06,25,11,32,28.00
2017,06,25,11,33,28.10
2017,06,25,11,34,28.10
2017,06,25,11,35,28.10
2017,06,25,11,36,28.20
2017,06,25,11,37,28.20
2017,06,25,11,38,28.10
2017,06,25,11,39,28.10
2017,06,25,11,40,28.00
2017,06,25,11,41,28.00
2017,06,25,11,42,28.10
2017,06,25,11,43,28.10
2017,06,25,11,44,28.20
2017,06,25,11,45,28.30
2017,06,25,11,46,28.40
2017,06,25,11,47,28.40
2017,06,25,11,48,28.50
2017,06,25,11,49,28.60
2017,06,25,11,50,28.60
2017,06,25,11,51,28.60
2017,06,25,11,52,28.60
2017,06,25,11,53,28.60
2017,06,25,11,54,28.70
2017,06,25,11,55,28.70
2017,06,25,11,56,28.60
2017,06,25,11,57,28.70
2017,06,25,11,58,28.70
2017,06,25,11,59,28.70
2017,06,25,12,00,28.60
2017,06,25,12,01,28.50
2017,06,25,12,02,28.40
2017,06,25,12,03,28.30
2017,06,25,12,04,28.20
2017,06,25,12,05,28.10
2017,06,25,12,06,28.10
2017,06,25,12,07,28.10
2017,06,25,12,08,28.10
2017,06,25,12,09,28.10
2017,06,25,12,10,28.30
2017,06,25,12,11,28.30
2017,06,25,12,12,28.30
2017,06,25,12,13,28.30
2017,06,25,12,14,28.40
2017,06,25,12,15,28.60
2017,06,25,12,16,28.70
2017,06,25,12,17,28.80
2017,06,25,12,18,28.80
2017,06,25,12,19,28.80
2017,06,25,12,20,28.90
2017,06,25,12,21,28.90
2017,06,25,12,22,28.90
2017,06,25,12,23,28.90
2017,06,25,12,24,28.90
2017,06,25,12,25,28.90
2017,06,25,12,26,29.00
2017,06,25,12,27,29.10
2017,06,25,12,28,29.20
2017,06,25,12,29,29.40
2017,06,25,12,30,29.30
2017,06,25,12,31,29.30
2017,06,25,12,32,29.30
2017,06,25,12,33,29.30
2017,06,25,12,34,29.30
2017,06,25,12,35,29.30
2017,06,25,12,36,29.40
2017,06,25,12,37,29.50
2017,06,25,12,38,29.60
2017,06,25,12,39,29.60
2017,06,25,12,40,29.60
2017,06,25,12,41,29.60
2017,06,25,12,42,29.50
2017,06,25,12,43,29.40
2017,06,25,12,44,29.40
2017,06,25,12,45,29.40
2017,06,25,12,46,29.40
2017,06,25,12,47,29.40
2017,06,25,12,48,29.50
2017,06,25,12,49,29.60
2017,06,25,12,50,29.60
2017,06,25,12,51,29.60
2017,06,25,12,52,29.60
2017,06,25,12,53,29.60
2017,06,25,12,54,29.40
2017,06,25,12,55,29.40
2017,06,25,12,56,29.40
2017,06,25,12,57,29.40
2017,06,25,12,58,29.40
2017,06,25,12,59,29.40
2017,06,25,13,00,29.40
2017,06,25,13,01,29.50
2017,06,25,13,02,29.50
2017,06,25,13,03,29.60
2017,06,25,13,04,29.70
2017,06,25,13,05,29.70
2017,06,25,13,06,29.80
2017,06,25,13,07,29.80
2017,06,25,13,08,29.90
2017,06,25,13,09,29.90
2017,06,25,13,10,29.90
2017,06,25,13,11,29.90
2017,06,25,13,12,30.00
2017,06,25,13,13,30.00
2017,06,25,13,14,30.10
2017,06,25,13,15,30.10
2017,06,25,13,16,30.20
2017,06,25,13,17,30.20
2017,06,25,13,18,30.10
2017,06,25,13,19,30.00
2017,06,25,13,20,30.00
2017,06,25,13,21,30.00
2017,06,25,13,22,29.90
2017,06,25,13,23,29.80
2017,06,25,13,24,29.70
2017,06,25,13,25,29.70
2017,06,25,13,26,29.70
2017,06,25,13,27,29.70
2017,06,25,13,28,29.70
2017,06,25,13,29,29.60
2017,06,25,13,30,29.50
2017,06,25,13,31,29.40
2017,06,25,13,32,29.40
2017,06,25,13,33,29.40
2017,06,25,13,34,29.50
2017,06,25,13,35,29.60
2017,06,25,13,36,29.50
2017,06,25,13,37,29.40
2017,06,25,13,38,29.30
2017,06,25,13,39,29.20
2017,06,25,13,40,29.10
2017,06,25,13,41,29.00
2017,06,25,13,42,28.90
2017,06,25,13,43,28.80
2017,06,25,13,44,28.90
2017,06,25,13,45,28.90
2017,06,25,13,46,28.90
2017,06,25,13,47,28.80
2017,06,25,13,48,28.80
2017,06,25,13,49,28.80
2017,06,25,13,50,28.90
2017,06,25,13,51,28.90
2017,06,25,13,52,29.00
2017,06,25,13,53,28.90
2017,06,25,13,54,28.90
2017,06,25,13,55,28.80
2017,06,25,13,56,28.80
2017,06,25,13,57,28.80
2017,06,25,13,58,28.90
2017,06,25,13,59,28.90
2017,06,25,14,00,28.90
2017,06,25,14,01,29.00
2017,06,25,14,02,29.10
2017,06,25,14,03,29.20
2017,06,25,14,04,29.20
2017,06,25,14,05,29.30
2017,06,25,14,06,29.30
2017,06,25,14,07,29.30
2017,06,25,14,08,29.30
2017,06,25,14,09,29.40
2017,06,25,14,10,29.50
2017,06,25,14,11,29.60
2017,06,25,14,12,29.70
2017,06,25,14,13,29.80
2017,06,25,14,14,29.80
2017,06,25,14,15,29.80
2017,06,25,14,16,29.80
2017,06,25,14,17,29.80
2017,06,25,14,18,29.80
2017,06,25,14,19,29.70
2017,06,25,14,20,29.70
2017,06,25,14,21,29.60
2017,06,25,14,22,29.60
2017,06,25,14,23,29.50
2017,06,25,14,24,29.40
2017,06,25,14,25,29.30
2017,06,25,14,26,29.30
2017,06,25,14,27,29.30
2017,06,25,14,28,29.40
2017,06,25,14,29,29.50
2017,06,25,14,30,29.60
2017,06,25,14,31,29.70
2017,06,25,14,32,29.90
2017,06,25,14,33,30.00
2017,06,25,14,34,30.20
2017,06,25,14,35,30.30
2017,06,25,14,36,30.40
2017,06,25,14,37,30.40
2017,06,25,14,38,30.50
2017,06,25,14,39,30.60
2017,06,25,14,40,30.60
2017,06,25,14,41,30.60
2017,06,25,14,42,30.70
2017,06,25,14,43,30.80
2017,06,25,14,44,30.90
2017,06,25,14,45,30.90
2017,06,25,14,46,30.90
2017,06,25,14,47,30.90
2017,06,25,14,48,30.90
2017,06,25,14,49,30.90
2017,06,25,14,50,30.80
2017,06,25,14,51,30.70
2017,06,25,14,52,30.50
2017,06,25,14,53,30.40
2017,06,25,14,54,30.40
2017,06,25,14,55,30.30
2017,06,25,14,56,30.20
2017,06,25,14,57,30.10
2017,06,25,14,58,29.90
2017,06,25,14,59,29.90
2017,06,25,15,00,29.80
2017,06,25,15,01,29.70
2017,06,25,15,02,29.70
2017,06,25,15,03,29.70
2017,06,25,15,04,29.70
2017,06,25,15,05,29.70
2017,06,25,15,06,29.70
2017,06,25,15,07,29.70
2017,06,25,15,08,29.70
2017,06,25,15,09,29.70
2017,06,25,15,10,29.70
2017,06,25,15,11,29.80
2017,06,25,15,12,29.70
2017,06,25,15,13,29.70
2017,06,25,15,14,29.70
2017,06,25,15,15,29.70
2017,06,25,15,16,29.70
2017,06,25,15,17,29.70
2017,06,25,15,18,29.70
2017,06,25,15,19,29.70
2017,06,25,15,20,29.60
2017,06,25,15,21,29.60
2017,06,25,15,22,29.50
2017,06,25,15,23,29.40
2017,06,25,15,24,29.40
2017,06,25,15,25,29.30
2017,06,25,15,26,29.30
2017,06,25,15,27,29.30
2017,06,25,15,28,29.30
2017,06,25,15,29,29.30
2017,06,25,15,30,29.30
2017,06,25,15,31,29.20
2017,06,25,15,32,29.20
2017,06,25,15,33,29.20
2017,06,25,15,34,29.20
2017,06,25,15,35,29.20
2017,06,25,15,36,29.30
2017,06,25,15,37,29.30
2017,06,25,15,38,29.30
2017,06,25,15,39,29.30
2017,06,25,15,40,29.30
2017,06,25,15,41,29.30
2017,06,25,15,42,29.40
2017,06,25,15,43,29.50
2017,06,25,15,44,29.50
2017,06,25,15,45,29.60
2017,06,25,15,46,29.70
2017,06,25,15,47,29.80
2017,06,25,15,48,29.80
2017,06,25,15,49,29.90
2017,06,25,15,50,29.90
2017,06,25,15,51,29.90
2017,06,25,15,52,29.90
2017,06,25,15,53,29.90
2017,06,25,15,54,30.00
2017,06,25,15,55,30.00
2017,06,25,15,56,30.00
2017,06,25,15,57,29.90
2017,06,25,15,58,30.00
2017,06,25,15,59,30.00
2017,06,25,16,00,30.10
2017,06,25,16,01,30.10
2017,06,25,16,02,30.20
2017,06,25,16,03,30.10
2017,06,25,16,04,30.10
2017,06,25,16,05,30.00
2017,06,25,16,06,30.00
2017,06,25,16,07,29.90
2017,06,25,16,08,29.80
2017,06,25,16,09,29.90
2017,06,25,16,10,29.90
2017,06,25,16,11,29.90
2017,06,25,16,12,30.00
2017,06,25,16,13,30.10
2017,06,25,16,14,30.10
2017,06,25,16,15,30.20
2017,06,25,16,16,30.30
2017,06,25,16,17,30.40
2017,06,25,16,18,30.50
2017,06,25,16,19,30.60
2017,06,25,16,20,30.70
2017,06,25,16,21,30.70
2017,06,25,16,22,30.70
2017,06,25,16,23,30.80
2017,06,25,16,24,30.80
2017,06,25,16,25,30.80
2017,06,25,16,26,30.90
2017,06,25,16,27,30.90
2017,06,25,16,28,30.90
2017,06,25,16,29,31.00
2017,06,25,16,30,31.10
2017,06,25,16,31,31.10
2017,06,25,16,32,31.10
2017,06,25,16,33,31.10
2017,06,25,16,34,31.10
2017,06,25,16,35,31.10
2017,06,25,16,36,31.10
2017,06,25,16,37,31.20
2017,06,25,16,38,31.30
2017,06,25,16,39,31.30
2017,06,25,16,40,31.30
2017,06,25,16,41,31.30
2017,06,25,16,42,31.20
2017,06,25,16,43,31.20
2017,06,25,16,44,31.10
2017,06,25,16,45,31.10
2017,06,25,16,46,31.00
2017,06,25,16,47,30.90
2017,06,25,16,48,30.80
2017,06,25,16,49,30.70
2017,06,25,16,50,30.70
2017,06,25,16,51,30.70
2017,06,25,16,52,30.70
2017,06,25,16,53,30.60
2017,06,25,16,54,30.60
2017,06,25,16,55,30.50
2017,06,25,16,56,30.50
2017,06,25,16,57,30.40
2017,06,25,16,58,30.40
2017,06,25,16,59,30.40
2017,06,25,17,00,30.40
2017,06,25,17,01,30.40
2017,06,25,17,02,30.30
2017,06,25,17,03,30.30
2017,06,25,17,04,30.30
2017,06,25,17,05,30.30
2017,06,25,17,06,30.30
2017,06,25,17,07,30.30
2017,06,25,17,08,30.30
2017,06,25,17,09,30.20
2017,06,25,17,10,30.20
2017,06,25,17,11,30.20
2017,06,25,17,12,30.20
2017,06,25,17,13,30.10
2017,06,25,17,14,30.10
2017,06,25,17,15,30.00
2017,06,25,17,16,30.00
2017,06,25,17,17,29.90
2017,06,25,17,18,29.90
2017,06,25,17,19,29.90
2017,06,25,17,20,29.90
2017,06,25,17,21,29.90
2017,06,25,17,22,29.90